Regional Weather Roundup
Issued by NWS State College, PA

Home | Current Version | Previous Version | Graphics & Text | Print | Product List | Glossary On
Versions: 1 2 3 4 5 6 7 8 9 10 11 12 13 14 15 16 17 18 19 20 21 22 23 24 25 26 27 28 29 30 31 32 33 34 35 36 37 38 39 40 41 42 43 44 45 46 47 48 49 50
000
ASUS41 KCTP 311403
RWRCTP

REGIONAL WEATHER ROUNDUP
NATIONAL WEATHER SERVICE STATE COLLEGE PA
1000 AM EDT MON AUG 31 2015

Note: "fair" indicates few or no clouds below 12,000 feet with no
significant weather and/or obstructions to visibility.

* = STATION THAT DOES NOT REPORT PRECIPITATION /E.G. RAIN...SNOW...ETC/
    THUNDER OR FOG.

PAZ002>004-007>009-013>016-020>023-029>032-311500-
WESTERN PENNSYLVANIA

CITY           SKY/WX    TMP DP  RH WIND       PRES   REMARKS
ERIE           MOSUNNY   76  65  68 SW8       30.08S
MEADVILLE      SUNNY     73  66  78 W5        30.12S
FRANKLIN*      SUNNY     72  64  78 SW6       30.15R
NEW CASTLE     FAIR      76  69  79 CALM      30.13S
BEAVER COUNTY  SUNNY     75  66  73 W5        30.13S
BUTLER*        MOSUNNY   73  66  78 S3        30.15R
PITTSBURGH INT PTSUNNY   74  66  76 W7        30.13R
PITTSBURGH     PTSUNNY   74  64  71 SW3       30.13S
INDIANA*       MOSUNNY   73  70  88 W7        30.17S
LATROBE        MOSUNNY   75  72  88 W12       30.15R
WASHINGTON CO* NOT AVBL
$$

PAZ004>006-010>012-017>019-024>028-033>037-041-042-045-046-049>053-311500-
CENTRAL PENNSYLVANIA

CITY           SKY/WX    TMP DP  RH WIND       PRES   REMARKS
BRADFORD       SUNNY     72  65  78 VRB6      30.14S
DUBOIS         PTSUNNY   73  66  78 W7        30.14S
CLEARFIELD     PTSUNNY   69  65  86 VRB3      30.14S
JOHNSTOWN      PTSUNNY   74  66  76 VRB5      30.18R
ALTOONA        MOSUNNY   79  66  64 CALM      30.14S
STATE COLLEGE  SUNNY     75  68  78 S6        30.12S
WILLIAMSPORT   PTSUNNY   71  66  84 SW5       30.08S
SELINSGROVE    PTSUNNY   75  68  78 CALM      30.09S
FT INDIANTOWN  PTSUNNY   76  68  78 SW5       30.09R
CAPITAL CITY   PTSUNNY   77  67  71 W6        30.08F
HARRISBURG     PTSUNNY   77  67  71 NW6       30.08S
YORK           CLOUDY    78  69  73 CALM      30.09S
$$

PAZ038>040-043-044-047-048-054-055-060>062-067>071-311500-
EASTERN PENNSYLVANIA

CITY           SKY/WX    TMP DP  RH WIND       PRES   REMARKS
SCRANTON       PTSUNNY   75  67  76 SW5       30.08F
MOUNT POCONO   CLOUDY    71  66  84 W8        30.13R
ALLENTOWN      PTSUNNY   78  67  68 SW5       30.07S
QUAKERTOWN*    PTSUNNY   77  68  73 CALM      30.09S
READING        PTSUNNY   78  68  71 CALM      30.07S
LANCASTER      PTSUNNY   77  68  73 W3        30.08S
COATESVILLE    PTSUNNY   77  68  73 NW7       30.10S
POTTSTOWN      PTSUNNY   77  69  76 SW6       30.09S
BLUE BELL      CLOUDY    79  70  73 W3        30.07S
DOYLESTOWN     CLOUDY    77  68  73 SW6       30.07S
WILLOW GROVE   NOT AVBL
NORTH PHILA    CLOUDY    80  66  62 W5        30.08S
PHILADELPHIA   CLOUDY    80  68  66 W8        30.07S
$$


USA.gov is the U.S. government's official web portal to all federal, state and local government web resources and services.